Klawock, AK

10:55 AM AKDT on March 27, 2017 (GMT -0800)
Klawock

Weather History for PAKW - December, 2012

Change the Weather History Date:

Saturday, December 1, 2012

  Actual Average Record
Temperature  
Mean Temperature 33 °F -  
Max Temperature 34 °F 39 °F 51 °F (1997)
Min Temperature 32 °F 32 °F 12 °F (2001)
Degree Days  
Heating Degree Days 32    
Moisture  
Dew Point 29 °F    
Average Humidity 85    
Maximum Humidity 92    
Minimum Humidity 75    
Precipitation  
Precipitation 0.03 in - - ()
Sea Level Pressure  
Sea Level Pressure 29.14 in    
Wind  
Wind Speed 14 mph (NNE)    
Max Wind Speed 17 mph    
Max Gust Speed 25 mph    
Visibility 8 miles    
Events Snow    
Averages and records for this station are not official NWS values.
T = Trace of Precipitation, MM = Missing Value Source: NWS Daily Summary

Daily Weather History Graph

Daily Weather History Graph

Search for Another Location

Airport or City:

Trip Planner

Search our weather history database for the weather conditions in past years. The results will help you decide how hot, cold, wet, or windy it might be!

Date:

Astronomy

Dec. 01, 2012 Rise Set
Actual Time 7:57 AM AKST 3:25 PM AKST
Civil Twilight 7:12 AM AKST 4:09 PM AKST
Nautical Twilight 6:25 AM AKST 4:57 PM AKST
Astronomical Twilight 5:41 AM AKST 5:41 PM AKST
Moon 6:32 PM AKST (12/1) 10:06 AM AKST (12/1)
Length of Visible Light 8h 57m
Length of Day
7h 27m
Waning Gibbous, 91% of the Moon is Illuminated
Dec 1
Waning Gibbous
Dec 6
Last Quarter
Dec 12
New
Dec 19
First Quarter
Dec 28
Full

Hourly Weather History & Observations

Time (AKST) Temp. Windchill Dew Point Humidity Pressure Visibility Wind Dir Wind Speed Gust Speed Precip Events Conditions
12:53 AM 34.0 °F 23.4 °F 27.0 °F 75% 29.16 in 10.0 mi NNE 17.3 mph 23.0 mph N/A   Overcast
1:53 AM 33.1 °F 22.6 °F 27.0 °F 78% 29.16 in 10.0 mi NNE 16.1 mph 25.3 mph N/A   Overcast
3:53 AM 32.0 °F 22.1 °F 28.9 °F 88% 29.16 in 2.0 mi NNE 13.8 mph 19.6 mph 0.00 in Snow Light Snow
4:00 AM 32.0 °F 22.1 °F 28.4 °F 87% 29.16 in 1.8 mi NE 13.8 mph 20.7 mph 0.00 in Snow Light Snow
4:03 AM 32.0 °F 23.0 °F 28.4 °F 87% 29.16 in 3.0 mi NNE 11.5 mph 20.7 mph 0.00 in Snow Light Snow
4:53 AM 32.0 °F 21.6 °F 28.9 °F 88% 29.16 in 5.0 mi NNE 15.0 mph 24.2 mph 0.00 in Snow Light Snow
5:13 AM 32.0 °F 23.0 °F 28.4 °F 87% 29.16 in 2.0 mi NNE 11.5 mph 21.9 mph 0.00 in Snow Light Snow
5:33 AM 32.0 °F 21.6 °F 28.4 °F 87% 29.16 in 3.0 mi NNE 15.0 mph 20.7 mph 0.00 in Snow Light Snow
5:53 AM 32.0 °F 23.0 °F 28.9 °F 88% 29.16 in 10.0 mi NNE 11.5 mph 21.9 mph 0.00 in   Overcast
6:53 AM 32.0 °F 22.5 °F 28.9 °F 88% 29.16 in 10.0 mi NNE 12.7 mph 20.7 mph 0.00 in   Overcast
7:53 AM 32.0 °F 22.1 °F 28.9 °F 88% 29.16 in 10.0 mi NNE 13.8 mph 21.9 mph N/A   Overcast
8:53 AM 32.0 °F 23.0 °F 28.9 °F 88% 29.17 in 5.0 mi NNE 11.5 mph 19.6 mph 0.00 in   Overcast
9:06 AM 32.0 °F 22.5 °F 28.4 °F 87% 29.17 in 9.0 mi NNE 12.7 mph - 0.00 in   Overcast
9:53 AM 32.0 °F 22.1 °F 30.0 °F 92% 29.17 in 10.0 mi NNE 13.8 mph - 0.00 in   Overcast
10:53 AM 33.1 °F 23.9 °F 30.0 °F 89% 29.17 in 10.0 mi NNE 12.7 mph 20.7 mph N/A   Overcast
11:53 AM 33.1 °F 22.6 °F 30.0 °F 89% 29.16 in 8.0 mi NNE 16.1 mph 21.9 mph 0.02 in Snow Light Snow
12:53 PM 34.0 °F 25.0 °F 28.9 °F 82% 29.15 in 10.0 mi NNE 12.7 mph 18.4 mph 0.01 in   Overcast
1:53 PM 33.1 °F 24.4 °F 28.9 °F 85% 29.15 in 10.0 mi NNE 11.5 mph 20.7 mph N/A   Overcast
2:15 PM 33.8 °F 24.8 °F 28.4 °F 81% 29.15 in 6.0 mi NNE 12.7 mph - 0.00 in Snow Light Snow
2:21 PM 33.8 °F 24.8 °F 28.4 °F 81% 29.15 in 2.5 mi NNE 12.7 mph - 0.00 in Snow Light Snow
2:31 PM 33.8 °F 25.3 °F 28.4 °F 81% 29.15 in 7.0 mi NNE 11.5 mph 19.6 mph 0.00 in Snow Light Snow
2:51 PM 33.8 °F 24.8 °F 28.4 °F 81% 29.14 in 5.0 mi NNE 12.7 mph - 0.00 in Snow Light Snow
2:53 PM 33.1 °F 23.9 °F 28.9 °F 85% 29.14 in 5.0 mi NNE 12.7 mph - 0.00 in Snow Light Snow
3:22 PM 33.8 °F 25.3 °F 28.4 °F 81% 29.14 in 7.0 mi NNE 11.5 mph - 0.00 in Snow Light Snow
3:53 PM 33.1 °F 23.9 °F 28.9 °F 85% 29.14 in 10.0 mi NNE 12.7 mph - 0.00 in   Overcast
4:36 PM 33.8 °F 23.9 °F 28.4 °F 81% 29.12 in 10.0 mi NNE 15.0 mph 21.9 mph N/A   Overcast
4:53 PM 33.1 °F 24.9 °F 28.9 °F 85% 29.13 in 10.0 mi NNE 10.4 mph 20.7 mph N/A   Overcast
5:53 PM 33.1 °F 24.9 °F 28.9 °F 85% 29.12 in 10.0 mi NNE 10.4 mph - N/A   Overcast
6:53 PM 33.1 °F 24.9 °F 28.0 °F 82% 29.11 in 10.0 mi NNE 10.4 mph 20.7 mph N/A   Overcast
7:53 PM 33.1 °F 24.4 °F 28.9 °F 85% 29.10 in 10.0 mi NNE 11.5 mph 23.0 mph N/A   Overcast
8:53 PM 33.1 °F 23.4 °F 28.9 °F 85% 29.09 in 10.0 mi NNE 13.8 mph 21.9 mph N/A   Overcast
9:22 PM 33.8 °F 24.8 °F 28.4 °F 81% 29.09 in 10.0 mi NNE 12.7 mph - N/A   Overcast
9:53 PM 33.1 °F 24.4 °F 28.9 °F 85% 29.09 in 10.0 mi NNE 11.5 mph 21.9 mph N/A   Overcast
10:53 PM 33.1 °F 24.9 °F 28.9 °F 85% 29.08 in 10.0 mi NNE 10.4 mph - N/A   Overcast
11:53 PM 33.1 °F 23.4 °F 28.9 °F 85% 29.07 in 10.0 mi NNE 13.8 mph 20.7 mph N/A   Overcast